Home > Weather > Delta > Past weeks

Flag for Canada Weather for the Past 2 Weeks in Delta, British Columbia, Canada

Now
46 °F

Passing clouds.


Feels Like: 46 °F
Forecast: 44 / 51 °F
Wind: No wind

Location: Vancouver International Airport

Current Time: Feb 9, 2016 at 11:48:17 PM

Latest Report: Feb 9, 2016 at 11:00 PM


Visibility: 20 mi

Pressure: 30.10 "Hg

Humidity: 87%

Dew point: 43 °F

Location of DeltaLocation

Historic Weather in Delta — Graph

°F

Delta Temperature Yesterday

Maximum temperature yesterday: 48 °F (at 11:00 AM)
Minimum temperature yesterday: 41 °F (at 2:00 AM)
Average temperature yesterday: 45 °F

High & Low Weather Summary for the Past Weeks

 TemperatureHumidityPressure
High55 °F (Feb 9, 1:00 PM)100% (Jan 26, 9:00 AM)30.61 "Hg (Jan 26, 9:00 AM)
Low36 °F (Feb 1, 3:45 AM)62% (Jan 28, 1:00 PM)29.59 "Hg (Jan 29, 10:00 AM)
Average44 °F87%30.13 "Hg
* Reported Jan 25 10:00 PM — Feb 9 10:00 PM, Delta, Weather by CustomWeather, © 2016

Note: Actual official high and low records may vary slightly from our data, if they occured in-between our weather recording intervals... More about our weather records

Advertising

Delta Weather History for the Previous 24 Hours

 ConditionsComfort  
Time TempWeatherWind HumidityBarometerVisibility
10:00 PM
Tue, Feb 9
41 °FPassing clouds.2 mph87%30.11 "Hg20 mi
9:00 PM41 °FPassing clouds.7 mph93%30.09 "Hg20 mi
8:00 PM41 °FPassing clouds.2 mph93%30.11 "Hg20 mi
7:00 PM43 °FPassing clouds.2 mph87%30.10 "Hg20 mi
6:00 PM45 °FPassing clouds.3 mph87%30.11 "Hg30 mi
5:00 PM45 °FPartly sunny.3 mph93%30.11 "Hg30 mi
4:00 PM48 °FPartly sunny.3 mph87%30.12 "Hg30 mi
3:00 PM50 °FScattered clouds.5 mph82%30.12 "Hg30 mi
2:00 PM50 °FPartly sunny.7 mph82%30.13 "Hg30 mi
1:00 PM55 °FPartly sunny.6 mph72%30.15 "Hg30 mi
12:00 PM50 °FPartly sunny.No wind88%30.18 "Hg30 mi
11:00 AM46 °FPartly sunny.6 mph100%30.20 "Hg30 mi
10:04 AM43 °FQuite cool.8 mph93%30.21 "Hg1 mi
9:00 AM39 °FFog.5 mph100%30.21 "Hg0 mi
8:03 AM36 °FChilly.No wind100%30.20 "Hg1 mi
7:00 AM36 °FFog.2 mph93%30.19 "Hg1 mi
6:00 AM36 °FFog.2 mph93%30.21 "Hg1 mi
5:00 AM36 °FFog.3 mph100%30.22 "Hg2 mi
4:00 AM37 °FFog.2 mph100%30.24 "Hg15 mi
3:00 AM37 °FFog.3 mph100%30.25 "Hg15 mi
2:00 AM41 °FFog.2 mph100%30.27 "Hg20 mi
1:00 AM41 °FClear.6 mph93%30.28 "Hg20 mi
12:00 AM43 °FClear.12 mph100%30.32 "Hg20 mi
11:00 PM
Mon, Feb 8
43 °FClear.10 mph100%30.34 "Hg20 mi
Weather by CustomWeather, © 2016

See weather overviewHow to use our weather pages